Regional Weather Roundup
Issued by NWS

Home | Current Version | Previous Version | Graphics & Text | Print | Product List | Glossary On
Versions: 1 2 3 4 5 6 7 8 9 10 11 12 13 14 15 16 17 18 19 20 21 22 23 24 25 26 27 28 29 30 31 32 33 34 35 36 37 38 39 40 41 42 43 44 45 46 47 48 49 50
000
ASUS43 KLSX 241410
RWRMO

WEATHER SUMMARY FOR MISSOURI
NATIONAL WEATHER SERVICE SPRINGFIELD MO
800 AM CST FRI FEB 24 2017

NOTE: "FAIR" INDICATES FEW OR NO CLOUDS BELOW 12,000 FEET WITH NO
       SIGNIFICANT WEATHER AND/OR OBSTRUCTIONS TO VISIBILITY.
       CURRENT SKY AND/OR WEATHER CONDITIONS ARE NOT AVAILABLE FOR
       CHILLICOTHE AND FARMINGTON.

MOZ001>031-035>038-043-044-053-054-241500-
...NORTHERN AND WESTERN MISSOURI...

CITY           SKY/WX    TMP DP  RH WIND       PRES   REMARKS
KANSAS CTY INT CLOUDY    37  34  89 W10       29.63R WCI  30
KANSAS C DTWN  CLOUDY    39  34  82 W9        29.64R
LEE`S SUMMIT   CLOUDY    38  35  89 W13G21    29.63R WCI  30
ST JOSEPH      CLOUDY    37  36  96 NW13      29.64R WCI  29
CHILLICOTHE      N/A     42  40  92 NW6       29.58R
KIRKSVILLE     CLOUDY    39  39 100 NW9       29.53R FOG

$$
MOZ066>068-077>081-088>096-101>105-241500-
...SOUTHWEST MISSOURI...

CITY           SKY/WX    TMP DP  RH WIND       PRES   REMARKS
SPRINGFIELD    CLOUDY    44  39  82 W12G25    29.64R
JOPLIN         CLOUDY    41  37  86 W13G24    29.70R
BRANSON        CLOUDY    46  43  87 NW13      29.64R

$$
MOZ032>034-039>042-045>050-055>058-069>072-241500-
...CENTRAL MISSOURI...

CITY           SKY/WX    TMP DP  RH WIND       PRES   REMARKS
COLUMBIA       CLOUDY    47  43  86 W22G30    29.55R
JEFFERSON CITY CLOUDY    48  44  86 W16G25    29.57R
ROLLA          LGT RAIN  51  48  89 W18       29.55R
SEDALIA        CLOUDY    43  38  82 W17G25    29.61R
WHITEMAN AFB   CLOUDY    41  41 100 W15       29.59R
WARRENSBURG    CLOUDY    39  34  81 W15G21    29.63R
OSAGE BEACH    CLOUDY    47  42  83 NW10G21   29.61R

$$
MOZ051-052-059>065-241500-
...EAST CENTRAL MISSOURI...

CITY           SKY/WX    TMP DP  RH WIND       PRES   REMARKS
ST LOUIS INTL  CLOUDY    63  54  72 S10       29.48R
SPIRIT OF STL  CLOUDY    64  55  72 SW6G18    29.46R
ST CHARLES     CLOUDY    63  56  78 S14       29.46R

$$
MOZ072>076-082>087-097>100-106>115-241500-
...SOUTH CENTRAL AND SOUTHEAST MISSOURI...

CITY           SKY/WX    TMP DP  RH WIND       PRES   REMARKS
CAPE GIRARDEAU PTSUNNY   62  54  74 S16G24    29.59R
FARMINGTON     MOSUNNY   60  53  77 S16G23    29.54R
POPLAR BLUFF   CLOUDY    61  54  77 S12       29.58R
WEST PLAINS    CLOUDY    60  53  77 SW10      29.58R

$$



USA.gov is the U.S. government's official web portal to all federal, state and local government web resources and services.